{"data":{"norad_id":48428,"intl_designator":"2021-040A","name":"STARLINK-2461","alt_names":[],"object_type":"PAYLOAD","status":"ACTIVE","operator":null,"country":"US","launch_date":"2021-05-09","launch_site_code":"AFETR","launch_vehicle":null,"mission":null,"orbit_class":"UNKNOWN","rcs_meters":null,"size_class":null,"mass_kg":null,"dimensions":null,"purposes":["comms"],"wikipedia_slug":null,"has_3d_model":false,"image_url":null,"decayed_at":null,"tle_current":{"epoch":"2026-09-19T19:20:49.080768Z","epoch_age_seconds":93581,"freshness":"FRESH","line1":"1 48428U 21040A   26262.80612362  .00006034  00000+0  20587-3 0  9996","line2":"2 48428  53.1606 355.3462 0001080  81.2991 278.8133 15.31726093296428","mean_motion":15.31726093,"eccentricity":0.000108,"inclination_deg":53.1606,"raan_deg":355.3462,"arg_perigee_deg":81.2991,"mean_anomaly_deg":278.8133,"bstar":0.00020587,"rev_number":29642,"period_min":94.011586443608,"perigee_km":469.92254413944,"apogee_km":471.40188476976,"semimajor_km":6848.7992144546,"source":"CELESTRAK","updated_at":"2026-09-20T09:00:39.122929Z"}}}